Location: Rostock
(54.0884°N, 12.1234°E)
Time: 04:15:22
(UTC+01:00)

Envisat - Visible Passes

Search period start: 22 February 2018 00:00
Search period end: 04 March 2018 00:00
Orbit: 764 x 766 km, 98.2° (Epoch: 21 February)

Date Brightness Start Highest point End Pass type
(mag) Time Alt. Az. Time Alt. Az. Time Alt. Az.
22 Feb 2.9 19:19:48 10° SSE 19:24:54 86° ENE 19:30:01 10° NNW visible
22 Feb 5.6 21:01:13 10° SW 21:04:37 18° W 21:08:02 10° NW visible
23 Feb 3.3 18:43:25 10° SE 18:48:15 47° ENE 18:53:09 10° N visible
23 Feb 4.6 20:22:55 10° SSW 20:27:28 33° W 20:32:04 10° NNW visible
24 Feb 3.9 18:07:35 10° ESE 18:11:48 27° ENE 18:16:04 10° N visible
24 Feb 3.5 19:45:30 10° S 19:50:32 62° WSW 19:55:36 10° NNW visible
24 Feb 6.0 21:29:15 10° W 21:30:38 11° W 21:32:00 10° WNW visible
25 Feb 2.9 19:08:43 10° SSE 19:13:46 72° ENE 19:18:52 10° NNW visible
25 Feb 5.3 20:49:30 10° SW 20:53:20 21° W 20:57:12 10° NW visible
26 Feb 3.5 18:32:29 10° SE 18:37:11 40° ENE 18:41:55 10° N visible
26 Feb 4.3 20:11:30 10° SSW 20:16:15 39° W 20:21:02 10° NNW visible
27 Feb 3.2 19:34:17 10° S 19:39:22 74° WSW 19:44:29 10° NNW visible
27 Feb 5.8 21:16:48 10° WSW 21:19:18 14° W 21:21:48 10° NW visible
28 Feb 3.0 18:57:40 10° SSE 19:02:39 60° ENE 19:07:41 10° N visible
28 Feb 5.1 20:37:53 10° SSW 20:42:04 25° W 20:46:17 10° NW visible
01 Mar 3.7 18:21:36 10° SE 18:26:08 34° ENE 18:30:41 10° N visible
01 Mar 4.0 20:00:09 10° S 20:05:03 47° W 20:09:59 10° NNW visible
02 Mar 3.0 19:23:07 10° SSE 19:28:12 88° WSW 19:33:20 10° NNW visible
02 Mar 5.7 21:04:49 10° SW 21:08:00 16° W 21:11:11 10° NW visible
03 Mar 3.2 18:46:39 10° SE 18:51:33 51° ENE 18:56:29 10° N visible
03 Mar 4.8 20:26:22 10° SSW 20:30:50 30° W 20:35:19 10° NNW visible
